This demonstration page uses our WeatherBlox Daily Observations layout. Learn more.

Left ArrowRight Arrow

39.01783, -85.05884

Hourly Observations for March 26, 2018

Temp ( °F °C ) Dew Point ( °F °C ) Humidity (%) Winds ( mph kmh ) Pressure ( in mb ) Visibility ( mi km ) Precip ( " mm )
12:52 am 00:52 Cloudy 38 3.3 14 -10 37 37 ENE 13 20 30.24 1024 10 16 N/A
1:52 am 01:52 Cloudy 37 2.8 14 -10 39 39 ENE 12 19 30.23 1024 10 16 N/A
2:52 am 02:52 Mostly Clear 36 2.2 14 -10 40 40 ENE 10 17 30.24 1024 10 16 N/A
4:52 am 04:52 Mostly Cloudy 36 2.2 17 -8.3 46 46 E 9 15 30.22 1023 10 16 N/A
5:52 am 05:52 Cloudy 37 2.8 20 -6.7 50 50 E 7 11 30.23 1024 10 16 N/A
6:52 am 06:52 Cloudy 40 4.4 23 -5 51 51 ESE 10 17 30.26 1025 10 16 N/A
7:42 am 07:42 Cloudy 40 4.4 25 -3.9 55 55 ESE 8 13 30.30 1026 10 16 N/A
7:52 am 07:52 Cloudy 41 5 25 -3.9 53 53 ESE 9 15 30.28 1025 10 16 N/A
8:52 am 08:52 Cloudy 41 5 26 -3.3 55 55 E 12 19 30.29 1026 10 16 N/A
9:52 am 09:52 Cloudy 43 6.1 28 -2.2 56 56 ESE 13 20 30.30 1026 10 16 N/A
10:52 am 10:52 Cloudy 44 6.7 29 -1.7 55 55 ESE 13 20 30.31 1026 10 16 N/A
11:52 am 11:52 Cloudy 45 7.2 30 -1.1 56 56 SE 14 22 30.32 1027 10 16 N/A
12:52 pm 12:52 Cloudy 49 9.4 33 0.6 55 55 SE 10 17 30.30 1026 10 16 N/A
1:07 pm 13:07 Cloudy 48 8.9 32 undefined 54 54 ESE 13 20 30.33 1027 10 16 N/A
1:52 pm 13:52 Cloudy 50 10 34 1.1 54 54 SE 14 22 30.29 1026 10 16 N/A
2:52 pm 14:52 Cloudy 54 12.2 37 2.8 53 53 SE 16 26 30.27 1025 10 16 N/A
3:52 pm 15:52 Cloudy 55 12.8 37 2.8 51 51 SE 14 22 30.25 1024 10 16 N/A
4:52 pm 16:52 Cloudy 56 13.3 38 3.3 51 51 SE 18 30 30.24 1024 10 16 N/A
5:52 pm 17:52 Cloudy 57 13.9 40 4.4 53 53 SE 15 24 30.22 1024 10 16 N/A
6:52 pm 18:52 Cloudy 56 13.3 39 3.9 53 53 SE 16 26 30.23 1024 10 16 N/A
7:52 pm 19:52 Mostly Cloudy 54 12.2 38 3.3 55 55 ESE 10 17 30.22 1023 10 16 N/A
8:52 pm 20:52 Cloudy 54 12.2 37 2.8 53 53 SE 15 24 30.23 1024 10 16 N/A
9:52 pm 21:52 Cloudy with Light Rain 52 11.1 38 3.3 59 59 SE 12 19 30.24 1024 10 16 N/A
10:52 pm 22:52 Cloudy with Light Rain 50 10 40 4.4 68 68 SE 10 17 30.23 1024 10 16 N/A
11:52 pm 23:52 Cloudy 51 10.6 39 3.9 64 64 SSE 13 20 30.20 1023 10 16 N/A

Powered by AerisWeather